Regional Weather Roundup
Issued by NWS

Home | Current Version | Previous Version | Graphics & Text | Print | Product List | Glossary On
Versions: 1 2 3 4 5 6 7 8 9 10 11 12 13 14 15 16 17 18 19 20 21 22 23 24 25 26 27 28 29 30 31 32 33 34 35 36 37 38 39 40 41 42 43 44 45 46 47 48 49 50
000
ASUS43 KLOT 061921
RWRIL

ILLINOIS REGIONAL WEATHER ROUNDUP
NATIONAL WEATHER SERVICE CHICAGO/ROMEOVILLE IL
200 PM CDT WED MAY 06 2015

NOTE: "FAIR" INDICATES FEW OR NO CLOUDS BELOW 12,000 FEET WITH NO
SIGNIFICANT WEATHER AND/OR OBSTRUCTIONS TO VISIBILITY.

* THESE STATIONS ARE NOT UNDER NWS QUALITY CONTROL. THEY ALSO MAY NOT
  REPORT WEATHER SUCH AS PRECIPITATION OR FOG.

ILZ001-002-007-009-015-016-024-062000-
NORTHWEST ILLINOIS

CITY           SKY/WX    TMP DP  RH WIND       PRES   REMARKS
MOLINE         MOSUNNY   83  54  36 S14G26    30.03F HX  82
STERLING*      MOSUNNY   81  63  54 SE8       30.07F HX  82
SAVANNA*       SUNNY     80  59  48 SE10      30.06F HX  81
$$

ILZ003-004-008-010-011-017-018-062000-
NORTH CENTRAL ILLINOIS

CITY           SKY/WX    TMP DP  RH WIND       PRES   REMARKS
ROCKFORD       PTSUNNY   77  63  61 SE10      30.11F
FREEPORT*      SUNNY     75  62  64 SE7       30.11F
ROCHELLE*      SUNNY     77  63  61 S10       30.11F
DE KALB*       SUNNY     75  61  62 S6        30.12F
PERU*          MOSUNNY   82  54  38 S16G22    30.09F HX  81
$$

ILZ005-006-012>014-019>023-062000-
NORTHEAST ILLINOIS

CITY           SKY/WX    TMP DP  RH WIND       PRES   REMARKS
CHICAGO-OHARE  MOSUNNY   74  58  57 NE12      30.12F
CHICAGO-MIDWAY PTSUNNY   81  61  50 E6        30.12F HAZE    HX  82
AURORA         SUNNY     79  60  52 S5        30.12F HX  80
LANSING*       SUNNY     80  58  48 SW6       30.13F HX  80
JOLIET*        SUNNY     82  61  48 S10       30.11F HX  83
WAUKEGAN       MOSUNNY   56  52  86 NE7       30.16F
DUPAGE AIRPORT SUNNY     78  61  55 VRB6      30.12F HX  80
KANKAKEE*      MOSUNNY   79  61  53 SW5       30.13F HX  80
WHEELING       SUNNY     64  54  69 NE8       30.16F
MORRIS*        MOSUNNY   82  58  44 S7        30.09F HX  82
ROMEOVILLE*    MOSUNNY   80  58  46 SW6       30.12F HX  80
NORTHERLY ISL    N/A     54  53  97 NE6         N/A
$$

LMZ740>746-062000-
SOUTHERN LAKE MICHIGAN

STATION/POSITION SKY/WX   TEMP    WIND        PRES    VSBY  WAVE
                          AIR SEA DIR/SP/G                  HT/PER
                          (F)     (DEG/KT/KT) (MB)    (MI)  (FT/S)
HARRISON CRIB              46      10/  8/  9   N/A
BURNHAM HARBOR             53      10/  8/  8   N/A
CALUMET HARBOR                    360/  5/  8   N/A
BURNS HARBOR               59      50/  7/  8 1021.7F
MICHIGAN CITY              55      30/  8/  9   N/A
MICHIGAN CITY 6N           53 53   40/  8/  8   N/A           1
ST. JOSEPH                 54 53   30/  8/  8   N/A           0
$$

ILZ025>027-034>036-040-047-049-050-058-095>099-062000-
WEST-CENTRAL ILLINOIS

CITY           SKY/WX    TMP DP  RH WIND       PRES   REMARKS
QUINCY         MOSUNNY   81  55  40 S18G30    30.03F HX  81
GALESBURG*     MOSUNNY   80  54  40 S16G23    30.06F HX  80
MACOMB*        MOSUNNY   82  54  37 S15G24    30.07F HX  81
JACKSONVILLE*  PTSUNNY   85  51  31 S15G21    30.07F HX  83
PITTSFIELD*    MOSUNNY   84  52  32 S17G26    30.06F HX  82
$$

ILZ028>032-037-038-041>044-048-051>054-059>061-062000-
CENTRAL ILLINOIS

CITY           SKY/WX    TMP DP  RH WIND       PRES   REMARKS
PONTIAC        MOSUNNY   83  55  37 SW14G22   30.11F HX  82
BLOOMINGTON    MOSUNNY   82  54  38 S21       30.11F HX  81
DECATUR        PTSUNNY   85  51  31 S18G24    30.10F HX  83
PEORIA         PTSUNNY   84  51  31 S18G25    30.07F HX  82
LACON*         MOSUNNY   81  52  36 S8G21     30.07F HX  80
LINCOLN*       PTSUNNY   83  49  30 S18       30.06F HX  82
SPRINGFIELD    PTSUNNY   86  52  30 S17G30    30.08F HX  84
TAYLORVILLE    PTSUNNY   82  52  34 S16       30.10S HX  81
$$

ILZ033-039-045-046-055>057-062-063-062000-
EAST-CENTRAL ILLINOIS

CITY           SKY/WX    TMP DP  RH WIND       PRES   REMARKS
CHAMPAIGN      PTSUNNY   85  46  25 S12G21    30.12F HX  82
DANVILLE*      MOSUNNY   85  49  28 SW12      30.10F HX  83
RANTOUL*       MOSUNNY   86  49  27 SW8G23    30.11F HX  84
MATTOON        MOSUNNY   82  51  34 S13       30.12F HX  81
PARIS*         MOSUNNY   86  50  28 S10G23    30.14F HX  84
$$

ILZ079-100>102-062000-
SOUTHWEST ILLINOIS

CITY           SKY/WX    TMP DP  RH WIND       PRES   REMARKS
ALTON          MOSUNNY   82  55  39 S12       30.09F HX  82
BELLEVILLE     MOSUNNY   84  56  37 S8G16     30.08F HX  83
CAHOKIA*       MOSUNNY   85  52  32 S12G25    30.07F HX  83
SPARTA*        MOSUNNY   81  57  43 SE13G18   30.11F HX  81
$$

ILZ064>066-069>071-074>076-080>082-084>086-088>090-092>094-062000-
SOUTH-CENTRAL ILLINOIS

CITY           SKY/WX    TMP DP  RH WIND       PRES   REMARKS
CARBONDALE     MOSUNNY   84  56  38 S14       30.11F HX  83
CAIRO*         MOSUNNY   84  55  37 SE10G16   30.11F HX  83
EFFINGHAM*     MOSUNNY   85  45  25 S8        30.13F HX  82
MARION         PTSUNNY   82  59  44 S12       30.12F HX  82
MT. VERNON     PTSUNNY  N/A N/A N/A S9        30.12F
CENTRALIA*     MOSUNNY   88  50  27 S13       30.11F HX  85
SALEM*         SUNNY     87  47  25 S12G20    30.12F HX  84
METROPOLIS*    PTSUNNY   84  56  38 E5        30.11F HX  83
$$

ILZ067-068-072-073-078-083-087-091-062000-
SOUTHEAST ILLINOIS

CITY           SKY/WX    TMP DP  RH WIND       PRES   REMARKS
LAWRENCEVILLE  PTSUNNY   86  53  32 S9        30.13F HX  84
FLORA*         SUNNY     85  49  28 S10G18    30.12F HX  82
FAIRFIELD*     PTSUNNY   83  53  34 SE10      30.11F HX  82
HARRISBURG*    SUNNY     85  53  33 S10G18    30.13F HX  83
ROBINSON*      MOSUNNY   87  48  26 S13       30.14F HX  84
CARMI*         MOSUNNY   85  47  25 SE10      30.12F HX  83
$$

ABBREVIATIONS USED IN REMARKS
   TC - TEMPERATURE IN CELSIUS
  WCI - WIND CHILL INDEX
   HX - HEAT INDEX
  VSB - VISIBILITY
$$



USA.gov is the U.S. government's official web portal to all federal, state and local government web resources and services.